Weather History for Fairbanks, AK

Change the Weather History Date:

Monday, November 22, 2010

  Actual Average Record
Temperature  
Mean Temperature 26 °F -1 °F  
Max Temperature 34 °F 8 °F 47 °F (1947)
Min Temperature 17 °F -9 °F -36 °F (1963)
Degree Days  
Heating Degree Days 39 66  
Month to date heating degree days 1128 1340  
Since 1 July heating degree days 3084 3599  
Cooling Degree Days 0 0  
Month to date cooling degree days 0 0  
Year to date cooling degree days 66 61  
Moisture  
Dew Point 29 °F    
Average Humidity 94    
Maximum Humidity 100    
Minimum Humidity 88    
Precipitation  
Precipitation 0.54 in 0.02 in 0.54 in (2010)
Month to date precipitation 1.19 0.50  
Year to date precipitation 9.56 10.00  
Snow  
Snow 0.00 in 0.40 in 4.00 in (1925)
Month to date snowfall 7.9 9.8  
Since 1 July snowfall 15.6 22.4  
Since 1 September snowfall 15.6 22.4  
Snow Depth 10.00 in    
Sea Level Pressure  
Sea Level Pressure 29.96 in    
Wind  
Wind Speed 2 mph (NNE)    
Max Wind Speed 5 mph    
Max Gust Speed -    
Visibility 5 miles    
Events Rain    
T = Trace of Precipitation, MM = Missing Value Source: NWS Daily Summary

Daily Weather History Graph

Daily Weather History Graph

Search for Another Location

Airport:

Trip Planner

Search our weather history database for the weather conditions in past years. The results will help you decide how hot, cold, wet, or windy it might be!

Date:

Astronomy

Nov. 22, 2010 Rise Set
Actual Time 9:50 AM AKST 3:23 PM AKST
Civil Twilight 8:43 AM AKST 4:31 PM AKST
Nautical Twilight 7:38 AM AKST 5:36 PM AKST
Astronomical Twilight 6:39 AM AKST 6:34 PM AKST
Moon 2:52 PM AKST (11/22) 12:23 PM AKST (11/22)
Length of Visible Light 7h 48m
Length of Day
5h 32m
Full, 99% of the Moon is Illuminated
Nov 22
Full
Nov 28
Last Quarter
Dec 5
New
Dec 13
First Quarter
Dec 20
Full

Hourly Weather History & Observations

Time (AKST) Temp. Windchill Dew Point Humidity Pressure Visibility Wind Dir Wind Speed Gust Speed Precip Events Conditions
12:53 AM 21.9 °F 17.2 °F 19.9 °F 92% 30.08 in 10.0 mi ENE 3.5 mph - N/A   Mostly Cloudy
1:53 AM 19.0 °F - 16.0 °F 88% 30.06 in 10.0 mi Calm Calm - N/A   Mostly Cloudy
2:53 AM 19.0 °F - 17.1 °F 92% 30.03 in 10.0 mi Calm Calm - N/A   Mostly Cloudy
3:53 AM 23.0 °F - 19.9 °F 88% 30.01 in 10.0 mi Calm Calm - N/A   Mostly Cloudy
4:53 AM 25.0 °F - 21.9 °F 88% 30.00 in 10.0 mi Calm Calm - N/A   Overcast
5:17 AM 26.6 °F - 24.8 °F 93% 29.97 in 9.0 mi Calm Calm - 0.00 in Rain Light Freezing Rain
5:53 AM 28.9 °F - 28.0 °F 96% 29.99 in 9.0 mi Calm Calm - 0.01 in Rain Light Freezing Rain
6:53 AM 32.0 °F - 30.0 °F 92% 29.98 in 9.0 mi Calm Calm - 0.03 in Rain Light Freezing Rain
7:53 AM 32.0 °F - 30.9 °F 96% 29.99 in 8.0 mi Calm Calm - 0.03 in Rain Light Freezing Rain
8:53 AM 32.0 °F - 32.0 °F 100% 29.99 in 7.0 mi Calm Calm - 0.05 in Rain Light Freezing Rain
9:53 AM 33.1 °F - 32.0 °F 96% 29.99 in 6.0 mi Calm Calm - 0.02 in Rain Light Freezing Rain
10:53 AM 33.1 °F - 32.0 °F 96% 29.99 in 5.0 mi Calm Calm - 0.04 in Rain Light Freezing Rain
11:30 AM 33.8 °F 30.8 °F 32.0 °F 93% 29.95 in 3.0 mi North 3.5 mph - 0.01 in Rain Light Freezing Rain
11:53 AM 33.1 °F 30.0 °F 32.0 °F 96% 29.99 in 2.5 mi NNE 3.5 mph - 0.02 in Rain Light Freezing Rain
12:04 PM 33.8 °F - 32.0 °F 93% 29.95 in 1.5 mi Calm Calm - 0.01 in Rain Light Freezing Rain
12:53 PM 33.1 °F 30.0 °F 32.0 °F 96% 29.98 in 1.5 mi NNE 3.5 mph - 0.03 in Rain Light Freezing Rain
1:53 PM 33.1 °F 28.7 °F 32.0 °F 96% 29.98 in 1.5 mi North 4.6 mph - 0.03 in Rain Light Freezing Rain
2:53 PM 33.1 °F 28.7 °F 32.0 °F 96% 29.98 in 1.5 mi NE 4.6 mph - 0.03 in Rain Light Freezing Rain
3:53 PM 33.1 °F 28.7 °F 32.0 °F 96% 29.97 in 1.5 mi NE 4.6 mph - 0.02 in Rain Light Freezing Rain
4:53 PM 33.1 °F 30.0 °F 32.0 °F 96% 29.96 in 1.8 mi NNE 3.5 mph - 0.03 in Rain Light Freezing Rain
5:27 PM 33.8 °F 29.6 °F 32.0 °F 93% 29.92 in 2.0 mi NNE 4.6 mph - 0.02 in Rain Light Freezing Rain
5:53 PM 33.1 °F 28.7 °F 32.0 °F 96% 29.94 in 2.0 mi NNE 4.6 mph - 0.03 in Rain Light Freezing Rain
6:53 PM 33.1 °F 28.7 °F 32.0 °F 96% 29.92 in 2.5 mi NNE 4.6 mph - 0.02 in Rain Light Freezing Rain
7:53 PM 33.1 °F 28.7 °F 32.0 °F 96% 29.90 in 2.5 mi NNE 4.6 mph - 0.02 in Rain Light Freezing Rain
7:58 PM 33.8 °F 29.6 °F 32.0 °F 93% 29.87 in 3.0 mi NNE 4.6 mph - 0.00 in Rain Light Freezing Rain
8:53 PM 33.1 °F 28.7 °F 32.0 °F 96% 29.89 in 3.0 mi North 4.6 mph - 0.02 in Rain Light Freezing Rain
9:53 PM 33.1 °F 30.0 °F 32.0 °F 96% 29.88 in 3.0 mi NE 3.5 mph - 0.02 in Rain Light Freezing Rain
10:53 PM 33.1 °F 30.0 °F 32.0 °F 96% 29.87 in 7.0 mi NE 3.5 mph - 0.02 in Rain Light Freezing Rain
11:53 PM 33.1 °F - 32.0 °F 96% 29.87 in 6.0 mi Calm Calm - 0.03 in Rain Light Freezing Rain